{"data":{"norad_id":58519,"intl_designator":"2023-191M","name":"STARLINK-31010","alt_names":[],"object_type":"PAYLOAD","status":"ACTIVE","operator":null,"country":"US","launch_date":"2023-12-07","launch_site_code":"AFETR","launch_vehicle":null,"mission":null,"orbit_class":"UNKNOWN","rcs_meters":null,"size_class":null,"mass_kg":null,"dimensions":null,"purposes":["comms"],"wikipedia_slug":null,"has_3d_model":false,"image_url":null,"decayed_at":null,"tle_current":{"epoch":"2026-09-19T21:57:32.516352Z","epoch_age_seconds":197530,"freshness":"STALE","line1":"1 58519U 23191M   26262.91495968  .00001417  00000+0  60997-4 0  9990","line2":"2 58519  43.0021  86.6607 0001291 269.5049  90.5654 15.27579821155176","mean_motion":15.27579821,"eccentricity":0.0001291,"inclination_deg":43.0021,"raan_deg":86.6607,"arg_perigee_deg":269.5049,"mean_anomaly_deg":90.5654,"bstar":6.0997e-5,"rev_number":15517,"period_min":94.266759759718,"perigee_km":482.16385283591,"apogee_km":483.9354112243,"semimajor_km":6861.1866320301,"source":"CELESTRAK","updated_at":"2026-09-21T09:00:33.908959Z"}}}